TimeMST,TemperatureF,Dew PointF,Humidity,Sea Level PressureIn,VisibilityMPH,Wind Direction,Wind SpeedMPH,Gust SpeedMPH,PrecipitationIn,Events,Conditions,WindDirDegrees,DateUTC
12:04 AM,28.4,26.6,93,29.98,10.0,Calm,Calm,-,N/A,,Overcast,0,2014-01-04 07:04:00
12:20 AM,28.4,26.6,93,29.99,10.0,Calm,Calm,-,N/A,,Overcast,0,2014-01-04 07:20:00
12:34 AM,26.6,24.8,93,29.99,10.0,Calm,Calm,-,N/A,,Overcast,0,2014-01-04 07:34:00
12:55 AM,26.1,25.0,96,30.06,10.0,Calm,Calm,-,N/A,,Overcast,0,2014-01-04 07:55:00
1:55 AM,25.0,24.1,96,30.06,10.0,Calm,Calm,-,N/A,,Overcast,0,2014-01-04 08:55:00
2:55 AM,27.0,26.1,96,30.08,8.0,Calm,Calm,-,N/A,,Overcast,0,2014-01-04 09:55:00
3:55 AM,27.0,25.0,92,30.09,10.0,South,3.5,-,N/A,,Overcast,170,2014-01-04 10:55:00
4:55 AM,27.0,25.0,92,30.09,10.0,Calm,Calm,-,N/A,,Overcast,0,2014-01-04 11:55:00
5:55 AM,25.0,24.1,96,30.10,10.0,Calm,Calm,-,N/A,,Overcast,0,2014-01-04 12:55:00
6:55 AM,25.0,23.0,92,30.12,10.0,Calm,Calm,-,N/A,,Overcast,0,2014-01-04 13:55:00
7:55 AM,24.1,19.0,81,30.14,10.0,NNE,11.5,-,N/A,,Overcast,20,2014-01-04 14:55:00
8:55 AM,23.0,16.0,74,30.18,6.0,NNE,16.1,-,0.00,Snow,Light Snow,20,2014-01-04 15:55:00
9:55 AM,23.0,15.1,72,30.23,6.0,NNE,16.1,-,0.00,Snow,Light Snow,30,2014-01-04 16:55:00
10:14 AM,21.2,15.8,80,30.13,2.0,NNE,15.0,-,0.00,Snow,Light Snow,30,2014-01-04 17:14:00
10:35 AM,21.2,15.8,80,30.13,6.0,NNE,12.7,-,0.00,Snow,Light Snow,30,2014-01-04 17:35:00
10:55 AM,23.0,15.1,72,30.25,6.0,NNE,12.7,-,0.00,Snow,Blowing Snow,20,2014-01-04 17:55:00
11:02 AM,21.2,15.8,80,30.14,6.0,North,13.8,-,0.00,Snow,Light Snow,10,2014-01-04 18:02:00
11:15 AM,21.2,15.8,80,30.14,5.0,NNE,11.5,-,0.00,Snow,Blowing Snow,20,2014-01-04 18:15:00
11:55 AM,23.0,14.0,68,30.25,10.0,NNE,11.5,-,0.00,,Overcast,20,2014-01-04 18:55:00
12:55 PM,24.1,16.0,71,30.26,10.0,North,6.9,-,N/A,,Overcast,10,2014-01-04 19:55:00
1:55 PM,24.1,16.0,71,30.26,10.0,NNE,6.9,-,N/A,,Overcast,20,2014-01-04 20:55:00
2:55 PM,24.1,17.1,75,30.27,10.0,NE,9.2,-,N/A,,Overcast,40,2014-01-04 21:55:00
3:55 PM,23.0,17.1,78,30.28,10.0,NE,6.9,-,N/A,,Overcast,50,2014-01-04 22:55:00
4:55 PM,21.9,17.1,82,30.30,10.0,NE,4.6,-,N/A,,Overcast,50,2014-01-04 23:55:00
5:55 PM,19.9,17.1,89,30.31,10.0,Calm,Calm,-,N/A,,Overcast,0,2014-01-05 00:55:00
6:55 PM,19.0,16.0,88,30.31,10.0,Calm,Calm,-,N/A,,Overcast,0,2014-01-05 01:55:00
7:55 PM,17.1,15.1,92,30.32,10.0,Calm,Calm,-,N/A,,Overcast,0,2014-01-05 02:55:00
8:55 PM,16.0,15.1,96,30.33,10.0,Calm,Calm,-,N/A,,Overcast,0,2014-01-05 03:55:00
9:55 PM,10.0,9.0,95,30.35,1.2,Calm,Calm,-,N/A,,Partly Cloudy,0,2014-01-05 04:55:00
10:09 PM,8.6,6.8,92,30.21,10.0,Calm,Calm,-,N/A,,Clear,0,2014-01-05 05:09:00
10:55 PM,15.1,10.0,80,30.37,10.0,NNE,12.7,-,N/A,,Scattered Clouds,30,2014-01-05 05:55:00
11:55 PM,16.0,9.0,74,30.38,10.0,NNE,19.6,-,N/A,,Mostly Cloudy,30,2014-01-05 06:55:00